This is the latest recevied weather packets stored in our database for station/object BARLOW-WX. If no packets are shown the sender has not sent any weather packets the latest 10 day(s).
| Time | Temp. | Humidity | Pressure | Rain* | Wind** | Luminosity | Snow |
|---|---|---|---|---|---|---|---|
| 1787690782 | 24.44° C | 56% | 990 hPa | 0 mm | - | - | - |
| 1787689882 | 24.44° C | 51% | 989.8 hPa | 0 mm | - | - | - |
| 1787688982 | 24.44° C | 51% | 989.8 hPa | 0 mm | - | - | - |
| 1787688083 | 23.89° C | 50% | 989.6 hPa | 0 mm | - | - | - |
| 1787687180 | 23.89° C | 54% | 990.2 hPa | 0 mm | - | - | - |
| 1787686281 | 23.89° C | 54% | 990.2 hPa | 0 mm | - | - | - |
| 1787685381 | 23.89° C | 54% | 990.2 hPa | 0 mm | - | - | - |
| 1787684481 | 23.89° C | 54% | 990.2 hPa | 0 mm | - | - | - |
| 1787683581 | 23.89° C | 54% | 991.6 hPa | 0 mm | - | - | - |
| 1787682990 | 23.89° C | 54% | 991.6 hPa | 0 mm | - | - | - |
| 1787681780 | 23.33° C | 54% | 991.6 hPa | 0 mm | - | - | - |
| 1787680882 | 23.33° C | 54% | 991.6 hPa | 0 mm | - | - | - |
| 1787679980 | 22.78° C | 60% | 991.2 hPa | 0 mm | - | - | - |
| 1787679077 | 22.78° C | 62% | 991.7 hPa | 0 mm | - | - | - |
| 1787678180 | 22.22° C | 62% | 991.7 hPa | 0 mm | - | - | - |
| 1787677280 | 21.67° C | 62% | 991.7 hPa | 0 mm | - | - | - |
| 1787676380 | 21.67° C | 66% | 991.3 hPa | 0 mm | - | - | - |
| 1787675480 | 21.67° C | 66% | 991.3 hPa | 0 mm | - | - | - |
| 1787674580 | 21.11° C | 66% | 991.3 hPa | 0 mm | - | - | - |
| 1787673680 | 20.56° C | 66% | 991.3 hPa | 0 mm | - | - | - |
| 1787672780 | 20.56° C | 73% | 991.9 hPa | 0 mm | - | - | - |
| 1787671880 | 20° C | 72% | 992.4 hPa | 0 mm | - | - | - |
| 1787670980 | 19.44° C | 72% | 992.4 hPa | 0 mm | - | - | - |
| 1787670080 | 18.89° C | 72% | 992.4 hPa | 0 mm | - | - | - |
| 1787669179 | 18.33° C | 82% | 992 hPa | 0 mm | - | - | - |
* Rain latest hour (hover to see other rain measurements)
** Current wind speed in m/s (hover to see current wind gust speed)